CW0571 Weather Reports


time (UTC)temp
C
wind
direction
speed
KPH
gust
KPH
rain 1hr
cm
rain 24hr
cm
rain mn
cm
humidity
%
barometer
mb
20260906133140 21 98 3.2 12.9 0.00 0.00 0.00 89 1018.2
20260906130140 20 58 8.0 11.3 0.00 0.00 0.00 89 1018.0
20260906123140 20 57 0.0 3.2 0.00 0.00 0.00 88 1017.7
20260906120140 20 53 0.0 3.2 0.00 0.00 0.00 87 1017.2
20260906113140 20 51 0.0 4.8 0.00 0.00 0.00 87 1016.9
20260906103140 20 52 0.0 3.2 0.00 0.00 0.00 86 1016.2
20260906100140 20 59 0.0 3.2 0.00 0.00 0.00 85 1016.1
20260906090141 21 103 0.0 3.2 0.00 0.00 0.00 84 1016.1
20260906083140 21 63 0.0 4.8 0.00 0.00 0.00 84 1016.0
20260906080140 21 71 0.0 1.6 0.00 0.00 0.00 83 1016.1
20260906073110 22 89 0.0 3.2 0.00 0.00 0.00 83 1016.2
20260906063140 22 86 0.0 3.2 0.00 0.00 0.00 81 1016.2
20260906060140 22 92 0.0 8.0 0.00 0.00 0.00 81 1016.2
20260906043140 23 47 0.0 9.7 0.00 0.00 0.00 79 1015.7
20260906040140 23 44 0.0 4.8 0.00 0.00 0.00 79 1015.3
20260906033140 23 95 1.6 14.5 0.00 0.00 0.00 78 1015.1
20260906023140 23 30 0.0 17.7 0.00 0.00 0.00 77 1015.0
20260906013140 23 106 8.0 20.9 0.00 0.00 0.00 75 1014.9
20260906003140 25 37 1.6 14.5 0.00 0.00 0.00 72 1014.5
20260906000140 26 70 1.6 12.9 0.00 0.00 0.00 70 1014.0
20260905233139 27 69 4.8 12.9 0.00 0.00 0.00 68 1014.0
20260905230140 27 342 1.6 17.7 0.00 0.00 0.00 66 1013.6
20260905223139 27 72 3.2 12.9 0.00 0.00 0.00 64 1013.3
20260905220139 27 19 0.0 6.4 0.00 0.00 0.00 65 1013.2
20260905213139 27 302 0.0 8.0 0.00 0.00 0.00 67 1013.4
20260905210140 27 286 0.0 9.7 0.00 0.00 0.00 68 1013.5
20260905203140 27 62 1.6 6.4 0.00 0.00 0.00 69 1013.8
20260905193140 28 5 0.0 9.7 0.00 0.00 0.00 67 1013.9
20260905190140 28 69 0.0 8.0 0.00 0.00 0.00 66 1014.0
20260905183139 28 74 3.2 9.7 0.00 0.00 0.00 65 1014.1
20260905180139 29 65 1.6 12.9 0.00 0.00 0.00 66 1014.0
20260905173140 29 22 0.0 11.3 0.00 0.00 0.00 67 1013.8
20260905170139 29 69 0.0 8.0 0.00 0.00 0.00 68 1013.9
20260905163139 28 94 0.0 6.4 0.00 0.00 0.00 71 1014.1
20260905160139 27 311 4.8 11.3 0.00 0.00 0.00 76 1014.0
20260905153139 26 57 1.6 8.0 0.00 0.00 0.00 80 1013.9
20260905150140 25 86 3.2 9.7 0.00 0.00 0.00 85 1013.5
20260905143139 24 76 3.2 6.4 0.00 0.00 0.00 88 1013.3
20260905140139 24 60 0.0 9.7 0.00 0.00 0.00 88 1013.2